Weather observations for the past three days for
Natchitoches, Natchitoches Regional Airport
Metric (Imperial)
Date Time (cdt) Wind (kph) Vis. (km) Weather Sky Cond. Temperature (ºC) Relative Humidity Wind Chill (°C) Heat Index (°C) Pressure Precipitation (cm)
Air Dwpt 6 hour altimeter (cm) sea level (mb) 1 hr 3 hr 6 hr
Max. Min.
04 21:35 Calm 16.09 Fair CLR 19.4 15 76% 75.82 0.0
04 21:15 Calm 16.09 Fair CLR 20.1 15 73% 75.82 0.0
04 20:55 Calm 16.09 Fair CLR 20.4 14.9 71% 75.82 0.0
04 20:35 S 11 16.09 Fair CLR 21.5 14.6 65% 75.79 0.0
04 20:15 S 9 16.09 Fair CLR 21.8 14.5 63% 75.79 0.0
04 19:55 S 11 16.09 Fair CLR 22.6 14.4 60% 75.79 0.0
04 19:35 S 13 16.09 Fair CLR 23.1 14.5 59% 75.79 0.0
04 19:15 S 15 16.09 Fair CLR 23.7 14.5 56% 75.79 0.0
04 18:55 S 15 16.09 Fair CLR 24.8 14.4 26.8 24.7 52% 26 75.82 0.0
04 18:35 S 13 16.09 Fair CLR 25.3 14.1 50% 26 75.82 0.0
04 18:15 S 9 16.09 Partly Cloudy SCT060 25.4 13.7 48% 26 75.84 0.0
04 17:55 S 15 16.09 Mostly Cloudy BKN060 26.1 13.5 46% 26 75.87 0.0
04 17:35 S 15 16.09 Mostly Cloudy BKN060 26.2 13.4 45% 27 75.87 0.0
04 17:15 S 17 16.09 Mostly Cloudy BKN060 25.6 13.2 46% 26 75.87 0.0
04 16:55 S 13 G 28 16.09 Partly Cloudy SCT060 26.6 13.6 45% 27 75.9 0.0
04 16:35 S 17 16.09 Partly Cloudy SCT060 25.8 13.1 45% 26 75.92 0.0
04 16:15 S 9 16.09 Fair CLR 25.5 12.9 46% 26 75.95 0.0
04 15:55 S 15 16.09 Partly Cloudy SCT060 26.4 12.7 43% 27 75.97 0.0
04 15:35 S 19 G 28 16.09 Partly Cloudy SCT060 26 12.6 43% 26 75.97 0.0
04 15:15 S 15 16.09 Mostly Cloudy BKN060 26.1 12.5 43% 26 76.02 0.0
04 14:55 S 20 G 31 16.09 Partly Cloudy SCT060 25.8 11.5 41% 26 76.05 0.0
04 14:35 SW 11 16.09 Fair CLR 25.7 10.8 39% 26 76.07 0.0
04 14:15 SW 6 G 28 16.09 Fair CLR 25.7 10.2 38% 26 76.1 0.0
04 13:55 S 15 16.09 Fair CLR 25.3 10.2 39% 26 76.1 0.0
04 13:35 S 13 16.09 Fair CLR 25.4 10.4 39% 26 76.12 0.0
04 13:15 S 13 G 26 16.09 Fair CLR 24.9 10.1 39% 26 76.15 0.0
04 12:55 S 17 G 28 16.09 Fair CLR 24.5 9.8 24.8 11.4 39% 25 76.17 0.0
04 12:35 S 26 G 33 16.09 Fair CLR 24.6 10.5 41% 26 76.2 0.0
04 12:15 SW 11 G 30 16.09 Fair CLR 24.4 10.3 41% 25 76.23 0.0
04 11:55 S 24 G 31 16.09 Fair CLR 24.2 11 44% 25 76.23 0.0
04 11:35 SW 19 16.09 Fair CLR 23.6 10.2 43% 76.25 0.0
04 11:15 S 15 G 26 16.09 Fair CLR 23.7 10.3 43% 76.25 0.0
04 10:55 S 15 16.09 Fair CLR 23.2 10.1 44% 76.25 0.0
04 10:35 SW 15 16.09 Fair CLR 22.9 10.7 46% 76.28 0.0
04 10:15 SW 20 16.09 Fair CLR 22.5 11.5 50% 76.28 0.0
04 09:55 SW 13 G 30 16.09 Fair CLR 21.6 11.9 54% 76.28 0.0
04 09:35 SW 13 16.09 Fair CLR 21 12 57% 76.28 0.0
04 09:15 SW 19 16.09 Fair CLR 20.2 11.5 58% 76.28 0.0
04 08:55 SW 15 16.09 Fair CLR 19.3 11.6 61% 76.28 0.0
04 08:35 Calm 16.09 Fair CLR 18.1 11.2 64% 76.28 0.0
04 08:15 Calm 16.09 Fair CLR 17 10.8 67% 76.28 0.0
04 07:55 Calm 16.09 Fair CLR 15.6 10.8 73% 76.28 0.0
04 07:35 Calm 16.09 Fair CLR 14 10.5 80% 76.28 0.0
04 07:15 Calm 16.09 Fair CLR 12.4 10.7 89% 76.28 0.0
04 06:55 Calm 16.09 Fair CLR 11 10 15.6 10.9 94% 76.28 0.0
04 06:35 Calm 16.09 Fair CLR 11 10 94% 76.23 0.0
04 06:15 Calm 16.09 Fair CLR 11.6 10 90% 76.23 0.0
04 05:55 Calm 16.09 Fair CLR 12.5 9.5 82% 76.25 0.0
04 05:35 Calm 16.09 Fair CLR 12.7 9.5 81% 76.25 0.0
04 05:15 Calm 16.09 Fair CLR 13.3 9.5 78% 76.25 0.0
04 04:55 Calm 16.09 Fair CLR 13.1 9.6 80% 76.25 0.0
04 04:35 Calm 16.09 Fair CLR 13.5 9.6 77% 76.25 0.0
04 04:15 Calm 16.09 Fair CLR 13.4 9.7 78% 76.23 0.0
04 03:55 Calm 16.09 Fair CLR 13.6 9.8 78% 76.23 0.0
04 03:35 Calm 16.09 Fair CLR 14 10 77% 76.25 0.0
04 03:15 Calm 16.09 Fair CLR 14.1 10.1 77% 76.25 0.0
04 02:55 Calm 16.09 Fair CLR 14.5 10.1 75% 76.25 0.0
04 02:35 Calm 16.09 Fair CLR 14.6 10.1 75% 76.28 0.0
04 02:15 Calm 16.09 Fair CLR 14.8 10.3 75% 76.3 0.0
04 01:55 Calm 16.09 Fair CLR 14.9 10.3 74% 76.33 0.0
04 01:15 Calm 16.09 Fair CLR 15.3 10.4 73% 76.35 0.0
04 00:55 Calm 16.09 Fair CLR 15.7 10.5 24.4 13.6 71% 76.35 0.0
04 00:35 Calm 16.09 Fair CLR 16.1 10.5 70% 76.35 0.0
04 00:15 Calm 16.09 Fair CLR 16.3 10.8 70% 76.35 0.0
03 23:55 Calm 16.09 Fair CLR 16.2 11 71% 76.35 0.0
03 23:35 Calm 16.09 Fair CLR 13.9 13.2 96% 76.35 0.0
03 23:15 Calm 16.09 Fair CLR 14 13.4 96% 76.35 0.0
03 22:55 Calm 16.09 Fair CLR 13.9 13.5 97% 76.35 0.0
03 22:35 Calm 16.09 Fair CLR 14.5 13.7 95% 76.38 0.0
03 22:15 Calm 16.09 Fair CLR 14.2 13.2 94% 76.38 0.0
03 21:55 Calm 16.09 Fair CLR 15.2 13.3 89% 76.35 0.0
03 21:35 Calm 16.09 Fair CLR 16 13.2 84% 76.35 0.0
03 21:15 Calm 16.09 Fair CLR 16.3 13.1 81% 76.33 0.0
03 20:55 Calm 16.09 Fair CLR 16.8 13 78% 76.33 0.0
03 20:35 Calm 16.09 Fair CLR 16.7 13 79% 76.33 0.0
03 20:15 Calm 16.09 Fair CLR 17.8 12.7 72% 76.3 0.0
03 19:55 Calm 16.09 Fair CLR 21.3 11.5 54% 76.28 0.0
03 19:35 Calm 16.09 Fair CLR 22.6 10.9 48% 76.3 0.0
03 19:15 Calm 16.09 Fair CLR 23.7 10.5 43% 76.3 0.0
03 18:55 Calm 16.09 Fair CLR 24.5 10 26.3 23.9 40% 25 76.3 0.0
03 18:35 Calm 16.09 Partly Cloudy SCT080 25.1 9.7 38% 26 76.33 0.0
03 18:15 Calm 16.09 Overcast OVC080 25.5 10 38% 26 76.33 0.0
03 17:55 Calm 16.09 Mostly Cloudy BKN080 25.7 8.8 34% 26 76.33 0.0
03 17:35 Calm 16.09 Partly Cloudy SCT080 25.5 8.9 35% 26 76.35 0.0
03 17:15 Calm 16.09 Fair CLR 24 11.7 46% 25 76.35 0.0
03 16:55 Calm 16.09 Partly Cloudy SCT070 24.8 9.5 38% 26 76.38 0.0
03 16:35 Calm 16.09 Partly Cloudy SCT070 25.7 9.6 36% 26 76.4 0.0
03 16:15 Calm 16.09 Partly Cloudy SCT080 25.9 9.5 36% 26 76.4 0.0
03 15:55 Calm 16.09 Mostly Cloudy BKN070 26.3 9.5 35% 26 76.43 0.0
03 15:35 Calm 16.09 Mostly Cloudy BKN070 25.9 10.2 37% 26 76.45 0.0
03 15:15 Calm 16.09 Partly Cloudy SCT070 25.8 9.5 36% 26 76.48 0.0
03 14:55 Calm 16.09 Partly Cloudy SCT070 25.3 9.4 37% 26 76.5 0.0
03 14:35 Calm 16.09 Partly Cloudy SCT070 25.6 10.2 38% 26 76.53 0.0
03 14:15 N 7 16.09 Fair CLR 25.1 9.6 38% 26 76.56 0.0
03 13:55 Calm 16.09 Fair CLR 24.9 8.9 36% 26 76.58 0.0
03 13:35 Calm 16.09 Fair CLR 24.7 9.4 38% 26 76.61 0.0
03 13:15 NW 11 16.09 Fair CLR 24.7 10 40% 26 76.61 0.0
03 12:55 Calm 16.09 Fair CLR 24.7 10 24.8 8.2 40% 26 76.63 0.0
03 12:35 Calm 16.09 Partly Cloudy SCT065 24.2 9 38% 25 76.66 0.0
03 12:15 Calm 16.09 Fair CLR 24.3 8 35% 25 76.68 0.0
03 11:55 Calm 16.09 Fair CLR 23.9 9.3 40% 25 76.68 0.0
03 11:35 Calm 16.09 Fair CLR 23.4 9.6 42% 76.68 0.0
03 11:15 Calm 16.09 Fair CLR 23.1 9.7 43% 76.71 0.0
03 10:55 Calm 16.09 Fair CLR 22.7 10.7 47% 76.71 0.0
03 10:35 W 9 16.09 Fair CLR 21.8 10.6 49% 76.71 0.0
03 10:15 Calm 16.09 Fair CLR 21.1 10.4 51% 76.71 0.0
03 09:55 Calm 16.09 Fair CLR 20.5 10.6 53% 76.73 0.0
03 09:35 Calm 16.09 Partly Cloudy SCT085 19.5 10.1 55% 76.73 0.0
03 09:15 SW 6 16.09 Partly Cloudy SCT085 18.6 9.5 56% 76.73 0.0
03 08:55 Calm 16.09 Partly Cloudy SCT090 17.4 10.6 65% 76.73 0.0
03 08:35 Calm 16.09 Partly Cloudy SCT090 15.5 11.2 76% 76.73 0.0
03 08:15 Calm 16.09 Mostly Cloudy BKN080 14 12 88% 76.71 0.0
03 07:55 Calm 16.09 Mostly Cloudy BKN080 12.2 12.1 99% 76.71 0.0
03 07:35 Calm 16.09 Mostly Cloudy BKN080 10.6 10.6 100% 76.68 0.0
03 07:15 Calm 16.09 Fair CLR 9 9 100% 76.68 0.0
03 06:55 Calm 16.09 Fair CLR 8 8 10.5 7.7 100% 76.66 0.0
03 06:35 Calm 16.09 Fair CLR 8.2 8.2 100% 76.63 0.0
03 06:15 Calm 11.27 Fair CLR 8 8 100% 76.61 0.0
03 05:55 Calm 16.09 Fair CLR 8.2 8.2 100% 76.58 0.0
03 05:35 Calm 16.09 Fair CLR 8.5 8.5 100% 76.58 0.0
03 05:15 Calm 4.02 Fog/Mist CLR 8.3 8.3 100% 76.58 0.0
03 04:55 Calm 11.27 Fair CLR 8.6 8.6 100% 76.56 0.0
03 04:35 Calm 16.09 Fair CLR 8.6 8.6 100% 76.58 0.0
03 04:15 Calm 11.27 Fair CLR 8.3 8.3 100% 76.56 0.0
03 03:55 Calm 16.09 Fair CLR 8.8 8.8 100% 76.56 0.0
03 03:35 Calm 16.09 Fair CLR 9.1 9.1 100% 76.56 0.0
03 03:15 Calm 16.09 Fair CLR 9 9 100% 76.56 0.0
03 02:55 Calm 16.09 Fair CLR 9.7 9.7 100% 76.53 0.0
03 02:35 Calm 16.09 Fair CLR 9.5 9.5 100% 76.53 0.0
03 02:15 Calm 16.09 Fair CLR 9 9 100% 76.53 0.0
03 01:55 Calm 16.09 Fair CLR 9.6 9.6 100% 76.53 0.0
03 01:35 Calm 16.09 Fair CLR 10.3 10.3 100% 76.53 0.0
03 01:15 Calm 16.09 Fair CLR 10.3 10.3 100% 76.53 0.0
03 00:55 Calm 16.09 Fair CLR 10.5 10.5 21.5 10.4 100% 76.53 0.0
03 00:35 Calm 16.09 Fair CLR 10.7 10.7 100% 76.56 0.0
03 00:15 Calm 16.09 Fair CLR 11 11 100% 76.53 0.0
02 23:55 Calm 16.09 Fair CLR 10.8 10.8 100% 76.53 0.0
02 23:35 Calm 16.09 Fair CLR 11.4 11.4 100% 76.56 0.0
02 23:15 Calm 16.09 Fair CLR 11.5 11.5 100% 76.53 0.0
02 22:55 Calm 16.09 Fair CLR 11.5 11.5 100% 76.53 0.0
02 22:35 Calm 16.09 Fair CLR 11.5 11.3 99% 76.53 0.0
02 22:15 Calm 16.09 Fair CLR 11.8 11.3 97% 76.53 0.0
02 21:55 Calm 16.09 Fair CLR 12.5 12.1 97% 76.5 0.0
02 21:35 Calm 16.09 Fair CLR 12.6 12.1 97% 76.48 0.0
02 21:15 Calm 16.09 Fair CLR 13 12 94% 76.48 0.0
02 20:55 Calm 16.09 Fair CLR 14.8 11.3 80% 76.45 0.0
02 20:35 Calm 16.09 Fair CLR 14.3 11 81% 76.45 0.0
02 20:15 Calm 16.09 Fair CLR 16.2 10.2 68% 76.43 0.0
02 19:55 Calm 16.09 Fair CLR 16.9 10.9 68% 76.43 0.0
02 19:35 Calm 16.09 Fair CLR 19.7 9.4 52% 76.4 0.0
02 19:15 Calm 16.09 Fair CLR 20.8 7.6 43% 76.4 0.0
02 18:55 Calm 16.09 Fair CLR 21.6 7.5 23.5 21 40% 76.4 0.0
02 18:35 N 11 16.09 Fair CLR 22.1 6.5 37% 76.38 0.0
02 18:15 NW 13 16.09 Fair CLR 22.5 6.8 36% 76.38 0.0
02 17:55 N 15 16.09 Fair CLR 22.8 6.4 35% 76.38 0.0
02 17:35 N 15 16.09 Fair CLR 22.3 5.7 34% 76.38 0.0
02 17:15 NW 19 G 28 16.09 Fair CLR 23.1 6.4 34% 76.35 0.0
02 16:55 N 17 G 30 16.09 Fair CLR 23.1 6 33% 76.38 0.0
02 16:35 N 13 16.09 Fair CLR 23.2 6.4 34% 76.38 0.0
02 16:15 NE 13 16.09 Fair CLR 23.5 6.6 34% 76.38 0.0
02 15:55 NE 11 16.09 Fair CLR 23.1 5.9 33% 76.4 0.0
02 15:35 NE 13 16.09 Fair CLR 22.8 5.2 32% 76.43 0.0
02 15:15 Calm 16.09 Fair CLR 23 6.5 35% 76.43 0.0
02 14:55 N 15 16.09 Fair CLR 22.6 6.1 34% 76.45 0.0
02 14:35 N 17 16.09 Fair CLR 22.1 5.7 35% 76.48 0.0
02 14:15 N 13 16.09 Fair CLR 22.3 6.3 36% 76.48 0.0
02 13:55 N 11 16.09 Fair CLR 22 6.3 36% 76.5 0.0
02 13:35 Calm 16.09 Fair CLR 21.5 5.6 36% 76.5 0.0
02 13:15 NE 13 16.09 Fair CLR 21.5 5.5 35% 76.53 0.0
02 12:55 NE 19 16.09 Fair CLR 21.2 4.8 21.4 11.6 34% 76.56 0.0
02 12:35 NE 9 16.09 Fair CLR 21 5.7 37% 76.56 0.0
02 12:15 NE 11 16.09 Fair CLR 20.5 5.3 37% 76.58 0.0
02 11:55 N 17 16.09 Fair CLR 20.5 5.7 38% 76.58 0.0
02 11:35 N 15 16.09 Fair CLR 19.9 6.4 42% 76.58 0.0
02 11:15 N 17 16.09 Fair CLR 19.6 6.2 42% 76.58 0.0
02 10:55 N 11 16.09 Fair CLR 19.3 7.5 47% 76.58 0.0
02 10:35 NE 15 16.09 Fair CLR 18.8 7.8 49% 76.58 0.0
02 10:15 N 15 16.09 Fair CLR 17.8 8.6 55% 76.56 0.0
02 09:55 Calm 16.09 Fair CLR 17.4 9.7 61% 76.56 0.0
02 09:35 Calm 16.09 Fair CLR 16.9 10 64% 76.56 0.0
02 09:15 N 15 16.09 Fair CLR 16.2 10.2 68% 76.53 0.0
02 08:55 N 13 16.09 Fair CLR 15.4 10.2 71% 76.5 0.0
02 08:35 Calm 16.09 Fair CLR 14.6 10.5 77% 76.48 0.0
02 08:15 Calm 16.09 Fair CLR 13.9 10.9 82% 76.45 0.0
02 07:55 Calm 16.09 Fair CLR 12.5 11.9 96% 76.43 0.0
02 07:35 Calm 16.09 Fair CLR 12.1 12.1 100% 76.4 0.0
02 07:15 Calm 16.09 Fair CLR 11.8 11.8 100% 76.4 0.0
02 06:55 Calm 16.09 Fair CLR 11.5 11.5 12.6 11.2 100% 76.38 0.0
02 06:35 Calm 16.09 Fair CLR 11.5 11.5 100% 76.35 0.0
02 06:15 Calm 16.09 Fair CLR 11.2 11.2 100% 76.35 0.0
02 05:55 Calm 16.09 Fair CLR 11.5 11.5 100% 76.3 0.0
02 05:35 Calm 16.09 Partly Cloudy SCT110 11.3 11.3 100% 76.28 0.0
02 05:15 Calm 16.09 Partly Cloudy SCT120 11.6 11.6 100% 76.28 0.0
02 04:55 Calm 16.09 Fair CLR 11.5 11.5 100% 76.28 0.0
02 04:35 Calm 16.09 Fair CLR 11.9 11.9 100% 76.28 0.0
02 04:15 Calm 16.09 Partly Cloudy SCT120 12 12 100% 76.28 0.0
02 03:55 Calm 16.09 Mostly Cloudy BKN120 12.1 12.1 100% 76.25 0.0
02 03:35 Calm 16.09 Partly Cloudy SCT110 12.3 12.3 100% 76.25 0.0
02 03:15 N 6 16.09 Overcast SCT085 OVC110 12.6 12.6 100% 76.25 0.0
02 02:55 Calm 16.09 Overcast BKN075 OVC110 12.5 12.5 100% 76.25 0.0
02 02:35 Calm 16.09 Overcast BKN075 OVC100 12.5 12.5 100% 76.23 0.0
02 02:15 Calm 16.09 Overcast SCT004 BKN075 OVC100 12.5 12.5 100% 76.25 0.0
02 01:55 Calm 16.09 Overcast BKN004 OVC065 12.3 12.3 100% 76.25 0.0
02 01:35 Calm 16.09 Overcast BKN004 BKN065 OVC095 12.3 12.3 100% 76.25 0.0
02 01:15 Calm 16.09 Overcast BKN004 OVC065 12.3 12.3 100% 76.25 0.0
02 00:55 Calm 16.09 Overcast SCT004 OVC065 12.3 12.3 12.6 11.2 100% 76.28 0.0
02 00:35 Calm 16.09 Overcast BKN004 OVC065 12.3 12.3 100% 76.28 0.0
02 00:15 Calm 16.09 Overcast BKN004 OVC065 12.5 12.5 100% 76.3 0.0
01 23:55 Calm 16.09 Overcast OVC055 12.4 12.4 100% 76.3 0.0
01 23:35 Calm 16.09 Overcast OVC055 12.4 12.4 100% 76.28 0.0
01 23:15 Calm 16.09 Light Drizzle SCT006 SCT013 OVC055 12.6 12.6 100% 76.28 0.0
01 22:55 Calm 16.09 Overcast OVC006 12.5 12.5 100% 76.33 0.0
01 22:35 Calm 16.09 Light Drizzle OVC006 12.5 12.5 100% 76.3 0.0
01 22:15 Calm 16.09 Light Rain SCT008 BKN012 OVC044 12.2 12.2 100% 76.28 0.0
01 21:55 Calm 16.09 Light Rain SCT014 OVC042 12 12 100% 76.28 0.0
Date Time (cdt) Wind (kph) Vis. (km) Weather Sky Cond. Air Dwpt Max. Min. Relative Humidity Wind Chill (°C) Heat Index (°C) altimeter (cm) sea level (mb) 1 hr 3 hr 6 hr
6 hour
Temperature (ºC) Pressure Precipitation (cm)